Bingham Lake, MN

8:45 PM CST on February 13, 2016 (GMT -0600)
Windom Municipal

Weather History for KMWM - April, 2014

Change the Weather History Date:

Tuesday, April 15, 2014

  Actual Average Record
Temperature  
Mean Temperature 28 °F -  
Max Temperature 41 °F 57 °F 89 °F (2002)
Min Temperature 15 °F 33 °F 3 °F (1999)
Degree Days  
Heating Degree Days 37    
Moisture  
Dew Point 13 °F    
Average Humidity 58    
Maximum Humidity 86    
Minimum Humidity 24    
Precipitation  
Precipitation 0.00 in - - ()
Sea Level Pressure  
Sea Level Pressure 30.07 in    
Wind  
Wind Speed 8 mph (WSW)    
Max Wind Speed 20 mph    
Max Gust Speed 25 mph    
Visibility 10 miles    
Events      
Averages and records for this station are not official NWS values.
T = Trace of Precipitation, MM = Missing Value Source: NWS Daily Summary

Daily Weather History Graph

Daily Weather History Graph

Search for Another Location

Airport or City:

Trip Planner

Search our weather history database for the weather conditions in past years. The results will help you decide how hot, cold, wet, or windy it might be!

Date:

Astronomy

Apr. 15, 2014 Rise Set
Actual Time 6:37 AM CDT 8:04 PM CDT
Civil Twilight 6:07 AM CDT 8:34 PM CDT
Nautical Twilight 5:31 AM CDT 9:10 PM CDT
Astronomical Twilight 4:52 AM CDT 9:49 PM CDT
Moon 8:47 PM CDT (4/15) 6:45 AM CDT (4/15)
Length of Visible Light 14h 27m
Length of Day
13h 27m
Full, 100% of the Moon is Illuminated
Apr 15
Full
Apr 22
Last Quarter
Apr 29
New
May 6
First Quarter
May 14
Full

Hourly Weather History & Observations

Time (CDT) Temp. Windchill Dew Point Humidity Pressure Visibility Wind Dir Wind Speed Gust Speed Precip Events Conditions
12:13 AM 23.0 °F 13.1 °F 17.6 °F 80% 30.15 in 10.0 mi NNW 9.2 mph - N/A   Clear
12:32 AM 21.2 °F 10.1 °F 15.8 °F 80% 30.15 in 10.0 mi NNW 10.4 mph - N/A   Clear
12:52 AM 21.2 °F 10.1 °F 15.8 °F 80% 30.15 in 10.0 mi NW 10.4 mph - N/A   Clear
1:13 AM 19.4 °F 8.6 °F 15.8 °F 86% 30.15 in 10.0 mi NNW 9.2 mph - N/A   Clear
1:32 AM 21.2 °F 10.9 °F 15.8 °F 80% 30.15 in 10.0 mi NNW 9.2 mph - N/A   Clear
1:52 AM 19.4 °F 9.5 °F 15.8 °F 86% 30.15 in 10.0 mi NW 8.1 mph - N/A   Clear
2:13 AM 19.4 °F 8.6 °F 15.8 °F 86% 30.15 in 10.0 mi NW 9.2 mph - N/A   Clear
2:32 AM 19.4 °F 9.5 °F 14.0 °F 80% 30.15 in 10.0 mi NW 8.1 mph - N/A   Clear
2:53 AM 17.6 °F 7.3 °F 14.0 °F 86% 30.15 in 10.0 mi NW 8.1 mph - N/A   Clear
3:13 AM 17.6 °F 7.3 °F 14.0 °F 86% 30.15 in 10.0 mi NW 8.1 mph - N/A   Clear
3:32 AM 17.6 °F 7.3 °F 12.2 °F 79% 30.15 in 10.0 mi NNW 8.1 mph - N/A   Clear
3:53 AM 15.8 °F 7.2 °F 12.2 °F 86% 30.15 in 10.0 mi NW 5.8 mph - N/A   Clear
4:13 AM 17.6 °F 8.2 °F 12.2 °F 79% 30.15 in 10.0 mi NW 6.9 mph - N/A   Clear
4:32 AM 15.8 °F 7.2 °F 12.2 °F 86% 30.15 in 10.0 mi NW 5.8 mph - N/A   Clear
4:53 AM 15.8 °F 7.2 °F 12.2 °F 86% 30.15 in 10.0 mi NW 5.8 mph - N/A   Clear
5:13 AM 15.8 °F 8.6 °F 12.2 °F 86% 30.14 in 10.0 mi NW 4.6 mph - N/A   Clear
5:32 AM 15.8 °F 8.6 °F 12.2 °F 86% 30.14 in 10.0 mi NW 4.6 mph - N/A   Clear
5:53 AM 15.8 °F 8.6 °F 12.2 °F 86% 30.15 in 10.0 mi WNW 4.6 mph - N/A   Clear
6:13 AM 15.8 °F 8.6 °F 10.4 °F 79% 30.15 in 10.0 mi West 4.6 mph - N/A   Clear
6:53 AM 15.8 °F 8.6 °F 12.2 °F 86% 30.16 in 10.0 mi West 4.6 mph - N/A   Clear
7:12 AM 15.8 °F 8.6 °F 12.2 °F 86% 30.17 in 10.0 mi West 4.6 mph - N/A   Clear
7:32 AM 17.6 °F 9.3 °F 12.2 °F 79% 30.17 in 10.0 mi West 5.8 mph - N/A   Clear
7:53 AM 19.4 °F 11.5 °F 14.0 °F 80% 30.17 in 10.0 mi West 5.8 mph - N/A   Clear
8:12 AM 19.4 °F 14.3 °F 14.0 °F 80% 30.17 in 10.0 mi NW 3.5 mph - N/A   Clear
8:32 AM 21.2 °F 13.6 °F 12.2 °F 68% 30.17 in 10.0 mi NW 5.8 mph - N/A   Clear
8:52 AM 21.2 °F 13.6 °F 10.4 °F 63% 30.17 in 10.0 mi West 5.8 mph - N/A   Clear
9:12 AM 23.0 °F 15.8 °F 10.4 °F 59% 30.16 in 10.0 mi NNW 5.8 mph - N/A   Clear
9:32 AM 24.8 °F 16.9 °F 8.6 °F 50% 30.17 in 10.0 mi WNW 6.9 mph - N/A   Clear
9:52 AM 24.8 °F 16.1 °F 8.6 °F 50% 30.16 in 10.0 mi WNW 8.1 mph - N/A   Clear
10:13 AM 26.6 °F 18.2 °F 8.6 °F 47% 30.16 in 10.0 mi WNW 8.1 mph - N/A   Clear
10:32 AM 26.6 °F 20.0 °F 8.6 °F 47% 30.15 in 10.0 mi NW 5.8 mph - N/A   Clear
10:52 AM 26.6 °F 22.6 °F 8.6 °F 47% 30.15 in 10.0 mi WNW 3.5 mph - N/A   Clear
11:13 AM 28.4 °F 22.2 °F 8.6 °F 43% 30.15 in 10.0 mi WNW 5.8 mph - N/A   Clear
11:52 AM 30.2 °F 24.3 °F 8.6 °F 40% 30.14 in 10.0 mi WSW 5.8 mph - N/A   Clear
12:13 PM 30.2 °F 25.4 °F 6.8 °F 37% 30.12 in 10.0 mi NW 4.6 mph - N/A   Clear
12:32 PM 30.2 °F - 8.6 °F 40% 30.11 in 10.0 mi Calm Calm - N/A   Clear
12:52 PM 32.0 °F 28.7 °F 6.8 °F 35% 30.10 in 10.0 mi WSW 3.5 mph - N/A   Clear
1:13 PM 33.8 °F 28.6 °F 6.8 °F 32% 30.08 in 10.0 mi South 5.8 mph - N/A   Clear
1:32 PM 33.8 °F 30.8 °F 6.8 °F 32% 30.08 in 10.0 mi South 3.5 mph - N/A   Clear
1:52 PM 33.8 °F 27.0 °F 6.8 °F 32% 30.07 in 10.0 mi SSW 8.1 mph - N/A   Clear
2:13 PM 35.6 °F - 6.8 °F 30% 30.06 in 10.0 mi Calm Calm - N/A   Clear
2:32 PM 37.4 °F 32.1 °F 6.8 °F 28% 30.05 in 10.0 mi South 6.9 mph - N/A   Clear
2:52 PM 37.4 °F 32.1 °F 5.0 °F 26% 30.04 in 10.0 mi South 6.9 mph - N/A   Scattered Clouds
3:13 PM 37.4 °F 32.8 °F 6.8 °F 28% 30.03 in 10.0 mi SE 5.8 mph - N/A   Mostly Cloudy
3:33 PM 39.2 °F 34.2 °F 6.8 °F 26% 30.02 in 10.0 mi South 6.9 mph - N/A   Mostly Cloudy
4:13 PM 39.2 °F 34.2 °F 6.8 °F 26% 29.99 in 10.0 mi South 6.9 mph 20.7 mph N/A   Overcast
4:33 PM 39.2 °F 33.0 °F 6.8 °F 26% 29.99 in 10.0 mi SSE 9.2 mph - N/A   Overcast
4:52 PM 41.0 °F 35.8 °F 6.8 °F 24% 29.98 in 10.0 mi SSE 8.1 mph - N/A   Overcast
5:13 PM 41.0 °F 35.8 °F 8.6 °F 26% 29.98 in 10.0 mi South 8.1 mph - N/A   Overcast
5:33 PM 41.0 °F 34.7 °F 10.4 °F 29% 29.97 in 10.0 mi SSE 10.4 mph 16.1 mph N/A   Overcast
5:52 PM 41.0 °F 35.8 °F 12.2 °F 31% 29.96 in 10.0 mi SSE 8.1 mph - N/A   Mostly Cloudy
6:13 PM 41.0 °F 34.3 °F 12.2 °F 31% 29.96 in 10.0 mi SSE 11.5 mph 17.3 mph N/A   Scattered Clouds
6:33 PM 39.2 °F 32.0 °F 15.8 °F 39% 29.96 in 10.0 mi SSE 11.5 mph 20.7 mph N/A   Clear
6:52 PM 39.2 °F 32.0 °F 17.6 °F 42% 29.96 in 10.0 mi SSE 11.5 mph - N/A   Clear
7:13 PM 39.2 °F 31.6 °F 19.4 °F 45% 29.96 in 10.0 mi SE 12.7 mph - N/A   Scattered Clouds
7:32 PM 39.2 °F 32.0 °F 19.4 °F 45% 29.96 in 10.0 mi SE 11.5 mph 17.3 mph N/A   Mostly Cloudy
7:52 PM 37.4 °F 29.8 °F 21.2 °F 52% 29.95 in 10.0 mi SE 11.5 mph - N/A   Overcast
8:13 PM 37.4 °F 29.3 °F 21.2 °F 52% 29.95 in 10.0 mi ESE 12.7 mph - N/A   Overcast
8:32 PM 37.4 °F 29.8 °F 23.0 °F 56% 29.94 in 10.0 mi ESE 11.5 mph - N/A   Mostly Cloudy
8:52 PM 35.6 °F 27.1 °F 23.0 °F 60% 29.94 in 10.0 mi ESE 12.7 mph - N/A   Scattered Clouds
9:13 PM 35.6 °F 26.2 °F 23.0 °F 60% 29.93 in 10.0 mi ESE 15.0 mph - N/A   Clear
9:32 PM 35.6 °F 26.6 °F 23.0 °F 60% 29.93 in 10.0 mi ESE 13.8 mph - N/A   Clear
9:52 PM 35.6 °F 27.1 °F 23.0 °F 60% 29.93 in 10.0 mi East 12.7 mph - N/A   Clear
10:13 PM 35.6 °F 26.2 °F 23.0 °F 60% 29.93 in 10.0 mi ESE 15.0 mph 19.6 mph N/A   Clear
10:32 PM 35.6 °F 26.2 °F 21.2 °F 56% 29.93 in 10.0 mi ESE 15.0 mph 25.3 mph N/A   Clear
10:52 PM 35.6 °F 25.9 °F 23.0 °F 60% 29.93 in 10.0 mi ESE 16.1 mph 19.6 mph N/A   Clear
11:12 PM 35.6 °F 25.5 °F 21.2 °F 56% 29.92 in 10.0 mi ESE 17.3 mph 23.0 mph N/A   Clear
11:32 PM 33.8 °F 23.5 °F 21.2 °F 60% 29.91 in 10.0 mi East 16.1 mph 21.9 mph N/A   Clear
11:53 PM 33.8 °F 22.5 °F 23.0 °F 65% 29.90 in 10.0 mi ESE 19.6 mph 24.2 mph N/A   Clear